Location: Newark
(48.4317°S, 179.1125°W)
Time: 13:27:51
(UTC+00:00)

N. Korean satellite - Visible Passes

Search period start: 24 January 2020 00:00
Search period end: 03 February 2020 00:00
Orbit: 454 x 507 km, 97.2° (Epoch: 23 January)

Date Brightness Start Highest point End Pass type
(mag) Time Alt. Az. Time Alt. Az. Time Alt. Az.
25 Jan 10.0 15:37:35 10° E 15:39:52 16° ESE 15:42:10 10° SSE visible
28 Jan 9.7 15:53:38 10° ENE 15:56:36 22° ESE 15:59:34 10° SSE visible
29 Jan 10.2 15:29:35 10° E 15:31:21 13° ESE 15:33:06 10° SSE visible
01 Feb 9.8 15:45:24 10° ENE 15:48:02 18° ESE 15:50:40 10° SSE visible
02 Feb 10.5 15:21:58 10° ESE 15:22:48 11° ESE 15:23:38 10° SE visible
